Wetterdaten: Dienstag, 29.12.2015
Datum Zeit Temp. A. Feuchte A. Luftdruck Regen Wind Richtung Richtung Sonnenschein ET UV Solar Taupunkt Windchill Windben Empfang
29.12.2015 00:00 -1,0 C 98 % 1029,6 hPa 0,0 l/m 0,0 km/h (0 Bft) S-SO 153 0 min 0,000 mm 0,0 UV-I 0 W/m -1,3 C -1,0 C 0,0 km/h (0 Bft) 98,33 %
29.12.2015 00:05 -1,2 C 98 % 1029,5 hPa 0,0 l/m 0,6 km/h (0 Bft) S-SO 153 0 min 0,000 mm 0,0 UV-I 0 W/m -1,5 C -1,2 C 1,6 km/h (1 Bft) 99,07 %
29.12.2015 00:10 -1,3 C 97 % 1029,5 hPa 0,0 l/m 2,1 km/h (1 Bft) S-SO 153 0 min 0,000 mm 0,0 UV-I 0 W/m -1,7 C -1,3 C 3,2 km/h (1 Bft) 100,00 %
29.12.2015 00:15 -1,3 C 98 % 1029,5 hPa 0,0 l/m 1,5 km/h (1 Bft) S-SO 153 0 min 0,000 mm 0,0 UV-I 0 W/m -1,6 C -1,3 C 3,2 km/h (1 Bft) 99,21 %
29.12.2015 00:20 -1,2 C 98 % 1029,4 hPa 0,0 l/m 1,6 km/h (1 Bft) S-SO 153 0 min 0,000 mm 0,0 UV-I 0 W/m -1,5 C -1,2 C 3,2 km/h (1 Bft) 100,00 %
29.12.2015 00:25 -1,3 C 98 % 1029,4 hPa 0,0 l/m 1,4 km/h (1 Bft) S-SO 153 0 min 0,000 mm 0,0 UV-I 0 W/m -1,6 C -1,3 C 3,2 km/h (1 Bft) 100,00 %
29.12.2015 00:30 -1,1 C 98 % 1029,4 hPa 0,0 l/m 0,8 km/h (0 Bft) S-SO 153 0 min 0,000 mm 0,0 UV-I 0 W/m -1,4 C -1,1 C 3,2 km/h (1 Bft) 100,00 %
29.12.2015 00:35 -1,0 C 98 % 1029,4 hPa 0,0 l/m 0,6 km/h (0 Bft) S-SO 153 0 min 0,000 mm 0,0 UV-I 0 W/m -1,3 C -1,0 C 1,6 km/h (1 Bft) 99,21 %
29.12.2015 00:40 -0,9 C 98 % 1029,3 hPa 0,0 l/m 1,5 km/h (1 Bft) S-SO 153 0 min 0,000 mm 0,0 UV-I 0 W/m -1,2 C -0,9 C 3,2 km/h (1 Bft) 98,21 %
29.12.2015 00:45 -1,0 C 98 % 1029,3 hPa 0,0 l/m 0,1 km/h (0 Bft) S-SO 153 0 min 0,000 mm 0,0 UV-I 0 W/m -1,3 C -1,0 C 1,6 km/h (1 Bft) 99,19 %
29.12.2015 00:50 -0,9 C 98 % 1029,3 hPa 0,0 l/m 1,6 km/h (1 Bft) S-SO 151 0 min 0,000 mm 0,0 UV-I 0 W/m -1,2 C -0,9 C 3,2 km/h (1 Bft) 100,00 %
29.12.2015 00:55 -0,9 C 98 % 1029,2 hPa 0,0 l/m 1,7 km/h (1 Bft) O-SO 113 0 min 0,000 mm 0,0 UV-I 0 W/m -1,2 C -0,9 C 3,2 km/h (1 Bft) 100,00 %
29.12.2015 01:00 -0,8 C 98 % 1029,2 hPa 0,0 l/m 1,3 km/h (1 Bft) O-SO 113 0 min 0,000 mm 0,0 UV-I 0 W/m -1,1 C -0,8 C 3,2 km/h (1 Bft) 98,21 %
29.12.2015 01:05 -0,6 C 98 % 1029,1 hPa 0,0 l/m 3,4 km/h (1 Bft) O-NO 72 0 min 0,000 mm 0,0 UV-I 0 W/m -0,9 C -0,6 C 4,8 km/h (1 Bft) 98,37 %
29.12.2015 01:10 -0,5 C 98 % 1029,1 hPa 0,0 l/m 2,7 km/h (1 Bft) O-NO 70 0 min 0,000 mm 0,0 UV-I 0 W/m -0,8 C -0,5 C 4,8 km/h (1 Bft) 97,39 %
29.12.2015 01:15 -0,4 C 98 % 1029,0 hPa 0,0 l/m 1,9 km/h (1 Bft) O-NO 67 0 min 0,000 mm 0,0 UV-I 0 W/m -0,7 C -0,4 C 4,8 km/h (1 Bft) 96,58 %
29.12.2015 01:20 -0,5 C 98 % 1029,0 hPa 0,0 l/m 1,2 km/h (1 Bft) O-NO 67 0 min 0,000 mm 0,0 UV-I 0 W/m -0,8 C -0,5 C 3,2 km/h (1 Bft) 97,52 %
29.12.2015 01:25 -0,8 C 98 % 1029,0 hPa 0,0 l/m 1,4 km/h (1 Bft) O-NO 67 0 min 0,000 mm 0,0 UV-I 0 W/m -1,1 C -0,8 C 3,2 km/h (1 Bft) 97,32 %
29.12.2015 01:30 -0,5 C 98 % 1029,0 hPa 0,0 l/m 1,2 km/h (1 Bft) O-NO 67 0 min 0,000 mm 0,0 UV-I 0 W/m -0,8 C -0,5 C 3,2 km/h (1 Bft) 96,67 %
29.12.2015 01:35 -1,3 C 97 % 1029,0 hPa 0,0 l/m 1,2 km/h (1 Bft) O-NO 67 0 min 0,000 mm 0,0 UV-I 0 W/m -1,7 C -1,3 C 3,2 km/h (1 Bft) 96,33 %
29.12.2015 01:40 -1,7 C 97 % 1028,9 hPa 0,0 l/m 1,1 km/h (1 Bft) O-NO 67 0 min 0,000 mm 0,0 UV-I 0 W/m -2,1 C -1,7 C 3,2 km/h (1 Bft) 98,31 %
29.12.2015 01:45 -1,6 C 97 % 1028,9 hPa 0,0 l/m 0,0 km/h (0 Bft) O-NO 67 0 min 0,000 mm 0,0 UV-I 0 W/m -2,0 C -1,6 C 1,6 km/h (1 Bft) 97,44 %
29.12.2015 01:50 -1,4 C 97 % 1029,0 hPa 0,0 l/m 0,3 km/h (0 Bft) O-NO 67 0 min 0,000 mm 0,0 UV-I 0 W/m -1,8 C -1,4 C 1,6 km/h (1 Bft) 97,58 %
29.12.2015 01:55 -1,2 C 98 % 1029,0 hPa 0,0 l/m 1,2 km/h (1 Bft) O-NO 67 0 min 0,000 mm 0,0 UV-I 0 W/m -1,5 C -1,2 C 3,2 km/h (1 Bft) 98,33 %
29.12.2015 02:00 -1,2 C 98 % 1028,9 hPa 0,0 l/m 0,0 km/h (0 Bft) O-NO 67 0 min 0,000 mm 0,0 UV-I 0 W/m -1,5 C -1,2 C 1,6 km/h (1 Bft) 98,21 %
29.12.2015 02:05 -1,4 C 97 % 1028,9 hPa 0,0 l/m 0,9 km/h (0 Bft) O-NO 67 0 min 0,000 mm 0,0 UV-I 0 W/m -1,8 C -1,4 C 3,2 km/h (1 Bft) 98,35 %
29.12.2015 02:10 -1,4 C 97 % 1028,9 hPa 0,0 l/m 1,0 km/h (0 Bft) O-NO 67 0 min 0,000 mm 0,0 UV-I 0 W/m -1,8 C -1,4 C 3,2 km/h (1 Bft) 97,37 %
29.12.2015 02:15 -1,4 C 98 % 1028,8 hPa 0,0 l/m 0,5 km/h (0 Bft) O-NO 67 0 min 0,000 mm 0,0 UV-I 0 W/m -1,7 C -1,4 C 1,6 km/h (1 Bft) 100,00 %
29.12.2015 02:20 -1,4 C 98 % 1028,8 hPa 0,0 l/m 0,1 km/h (0 Bft) O-NO 67 0 min 0,000 mm 0,0 UV-I 0 W/m -1,7 C -1,4 C 1,6 km/h (1 Bft) 99,08 %
29.12.2015 02:25 -1,3 C 98 % 1028,8 hPa 0,0 l/m 2,3 km/h (1 Bft) O 96 0 min 0,000 mm 0,0 UV-I 0 W/m -1,6 C -1,3 C 4,8 km/h (1 Bft) 97,50 %
29.12.2015 02:30 -0,9 C 98 % 1028,8 hPa 0,0 l/m 4,8 km/h (1 Bft) O-NO 58 0 min 0,000 mm 0,0 UV-I 0 W/m -1,2 C -0,9 C 11,3 km/h (2 Bft) 100,00 %
29.12.2015 02:35 -0,2 C 98 % 1028,8 hPa 0,0 l/m 4,8 km/h (1 Bft) O-NO 58 0 min 0,000 mm 0,0 UV-I 0 W/m -0,5 C -0,2 C 8,0 km/h (2 Bft) 99,07 %
29.12.2015 02:40 0,1 C 98 % 1028,8 hPa 0,0 l/m 4,4 km/h (1 Bft) O-NO 69 0 min 0,000 mm 0,0 UV-I 0 W/m -0,2 C 0,1 C 8,0 km/h (2 Bft) 99,17 %
29.12.2015 02:45 0,1 C 98 % 1028,8 hPa 0,0 l/m 4,2 km/h (1 Bft) O-NO 68 0 min 0,000 mm 0,0 UV-I 0 W/m -0,2 C 0,1 C 6,4 km/h (2 Bft) 99,17 %
29.12.2015 02:50 -0,3 C 98 % 1028,7 hPa 0,0 l/m 3,1 km/h (1 Bft) O 91 0 min 0,000 mm 0,0 UV-I 0 W/m -0,6 C -0,3 C 6,4 km/h (2 Bft) 99,12 %
29.12.2015 02:55 -0,3 C 98 % 1028,6 hPa 0,0 l/m 1,9 km/h (1 Bft) O 86 0 min 0,000 mm 0,0 UV-I 0 W/m -0,6 C -0,3 C 6,4 km/h (2 Bft) 98,26 %
29.12.2015 03:00 -0,4 C 97 % 1028,6 hPa 0,0 l/m 2,6 km/h (1 Bft) O-NO 65 0 min 0,000 mm 0,0 UV-I 0 W/m -0,8 C -0,4 C 4,8 km/h (1 Bft) 100,00 %
29.12.2015 03:05 0,1 C 98 % 1028,6 hPa 0,0 l/m 2,3 km/h (1 Bft) O-NO 65 0 min 0,000 mm 0,0 UV-I 0 W/m -0,2 C 0,1 C 4,8 km/h (1 Bft) 100,00 %
29.12.2015 03:10 0,2 C 98 % 1028,6 hPa 0,0 l/m 0,5 km/h (0 Bft) O-NO 65 0 min 0,000 mm 0,0 UV-I 0 W/m -0,1 C 0,2 C 3,2 km/h (1 Bft) 100,00 %
29.12.2015 03:15 0,2 C 98 % 1028,6 hPa 0,0 l/m 1,4 km/h (1 Bft) O-NO 59 0 min 0,000 mm 0,0 UV-I 0 W/m -0,1 C 0,2 C 4,8 km/h (1 Bft) 99,11 %
29.12.2015 03:20 0,3 C 98 % 1028,5 hPa 0,0 l/m 0,6 km/h (0 Bft) O-NO 59 0 min 0,000 mm 0,0 UV-I 0 W/m 0,0 C 0,3 C 1,6 km/h (1 Bft) 99,21 %
29.12.2015 03:25 0,5 C 98 % 1028,4 hPa 0,0 l/m 2,5 km/h (1 Bft) O 86 0 min 0,000 mm 0,0 UV-I 0 W/m 0,2 C 0,5 C 4,8 km/h (1 Bft) 99,13 %
29.12.2015 03:30 0,9 C 98 % 1028,4 hPa 0,0 l/m 6,0 km/h (2 Bft) NO 49 0 min 0,000 mm 0,0 UV-I 0 W/m 0,6 C 0,9 C 11,3 km/h (2 Bft) 99,10 %
29.12.2015 03:35 1,1 C 98 % 1028,4 hPa 0,0 l/m 8,3 km/h (2 Bft) O-NO 63 0 min 0,000 mm 0,0 UV-I 0 W/m 0,8 C -0,8 C 16,1 km/h (3 Bft) 98,39 %
29.12.2015 03:40 1,2 C 98 % 1028,4 hPa 0,0 l/m 8,2 km/h (2 Bft) NO 51 0 min 0,000 mm 0,0 UV-I 0 W/m 0,9 C -0,6 C 14,5 km/h (3 Bft) 98,29 %
29.12.2015 03:45 1,2 C 97 % 1028,3 hPa 0,0 l/m 7,5 km/h (2 Bft) O-NO 64 0 min 0,000 mm 0,0 UV-I 0 W/m 0,8 C 0,1 C 14,5 km/h (3 Bft) 96,43 %
29.12.2015 03:50 1,2 C 97 % 1028,3 hPa 0,0 l/m 9,1 km/h (2 Bft) NO 44 0 min 0,000 mm 0,0 UV-I 0 W/m 0,8 C -1,4 C 14,5 km/h (3 Bft) 95,97 %
29.12.2015 03:55 1,6 C 98 % 1028,3 hPa 0,0 l/m 9,6 km/h (2 Bft) O-NO 77 0 min 0,000 mm 0,0 UV-I 0 W/m 1,3 C -1,4 C 17,7 km/h (3 Bft) 97,37 %
29.12.2015 04:00 1,8 C 98 % 1028,2 hPa 0,0 l/m 12,3 km/h (3 Bft) O-NO 74 0 min 0,000 mm 0,0 UV-I 0 W/m 1,5 C -3,1 C 17,7 km/h (3 Bft) 96,61 %
29.12.2015 04:05 2,1 C 98 % 1028,2 hPa 0,0 l/m 12,5 km/h (3 Bft) O-NO 60 0 min 0,000 mm 0,0 UV-I 0 W/m 1,8 C -2,9 C 20,9 km/h (4 Bft) 97,12 %
29.12.2015 04:10 2,2 C 98 % 1028,2 hPa 0,0 l/m 11,8 km/h (2 Bft) O-NO 67 0 min 0,000 mm 0,0 UV-I 0 W/m 1,9 C -2,3 C 19,3 km/h (3 Bft) 98,37 %
29.12.2015 04:15 2,3 C 98 % 1028,2 hPa 0,0 l/m 12,5 km/h (3 Bft) O-NO 74 0 min 0,000 mm 0,0 UV-I 0 W/m 2,0 C -2,7 C 17,7 km/h (3 Bft) 96,43 %
29.12.2015 04:20 2,3 C 97 % 1028,2 hPa 0,2 l/m 12,1 km/h (2 Bft) NO 42 0 min 0,000 mm 0,0 UV-I 0 W/m 1,9 C -2,4 C 17,7 km/h (3 Bft) 100,00 %
29.12.2015 04:25 2,3 C 97 % 1028,2 hPa 0,0 l/m 13,1 km/h (3 Bft) O-NO 61 0 min 0,000 mm 0,0 UV-I 0 W/m 1,9 C -3,1 C 20,9 km/h (4 Bft) 98,52 %
29.12.2015 04:30 2,4 C 97 % 1028,2 hPa 0,0 l/m 14,6 km/h (3 Bft) O-NO 67 0 min 0,000 mm 0,0 UV-I 0 W/m 2,0 C -3,8 C 22,5 km/h (4 Bft) 99,11 %
29.12.2015 04:35 2,6 C 97 % 1028,2 hPa 0,0 l/m 13,2 km/h (3 Bft) O-NO 57 0 min 0,000 mm 0,0 UV-I 0 W/m 2,2 C -2,8 C 20,9 km/h (4 Bft) 99,19 %
29.12.2015 04:40 2,7 C 97 % 1028,2 hPa 0,0 l/m 14,6 km/h (3 Bft) O-NO 72 0 min 0,000 mm 0,0 UV-I 0 W/m 2,3 C -3,5 C 22,5 km/h (4 Bft) 100,00 %
29.12.2015 04:45 2,8 C 98 % 1028,2 hPa 0,0 l/m 14,6 km/h (3 Bft) O-NO 63 0 min 0,000 mm 0,0 UV-I 0 W/m 2,5 C -3,4 C 22,5 km/h (4 Bft) 100,00 %
29.12.2015 04:50 3,0 C 97 % 1028,1 hPa 0,0 l/m 16,2 km/h (3 Bft) NO 55 0 min 0,000 mm 0,0 UV-I 0 W/m 2,6 C -4,0 C 29,0 km/h (5 Bft) 100,00 %
29.12.2015 04:55 3,1 C 97 % 1028,1 hPa 0,0 l/m 15,3 km/h (3 Bft) O-NO 63 0 min 0,000 mm 0,0 UV-I 0 W/m 2,7 C -3,4 C 25,7 km/h (4 Bft) 100,00 %
29.12.2015 05:00 3,2 C 97 % 1028,1 hPa 0,0 l/m 16,9 km/h (3 Bft) O-NO 74 0 min 0,000 mm 0,0 UV-I 0 W/m 2,8 C -4,1 C 24,1 km/h (4 Bft) 98,78 %
29.12.2015 05:05 3,2 C 97 % 1028,0 hPa 0,0 l/m 16,9 km/h (3 Bft) O-NO 66 0 min 0,000 mm 0,0 UV-I 0 W/m 2,8 C -4,1 C 27,4 km/h (4 Bft) 100,00 %
29.12.2015 05:10 3,4 C 97 % 1028,0 hPa 0,0 l/m 17,1 km/h (3 Bft) O-NO 58 0 min 0,000 mm 0,0 UV-I 0 W/m 3,0 C -3,9 C 25,7 km/h (4 Bft) 98,39 %
29.12.2015 05:15 3,4 C 97 % 1028,0 hPa 0,0 l/m 16,4 km/h (3 Bft) O 82 0 min 0,000 mm 0,0 UV-I 0 W/m 3,0 C -3,6 C 30,6 km/h (5 Bft) 98,20 %
29.12.2015 05:20 3,4 C 96 % 1028,0 hPa 0,0 l/m 16,7 km/h (3 Bft) O-NO 67 0 min 0,000 mm 0,0 UV-I 0 W/m 2,8 C -3,7 C 27,4 km/h (4 Bft) 99,11 %
29.12.2015 05:25 3,3 C 96 % 1028,0 hPa 0,0 l/m 15,2 km/h (3 Bft) O 84 0 min 0,000 mm 0,0 UV-I 0 W/m 2,7 C -3,1 C 22,5 km/h (4 Bft) 100,00 %
29.12.2015 05:30 3,3 C 97 % 1028,0 hPa 0,0 l/m 16,3 km/h (3 Bft) O-NO 73 0 min 0,000 mm 0,0 UV-I 0 W/m 2,9 C -3,7 C 24,1 km/h (4 Bft) 99,15 %
29.12.2015 05:35 3,4 C 96 % 1028,0 hPa 0,0 l/m 17,2 km/h (3 Bft) O 92 0 min 0,000 mm 0,0 UV-I 0 W/m 2,8 C -4,0 C 25,7 km/h (4 Bft) 100,00 %
29.12.2015 05:40 3,4 C 96 % 1028,0 hPa 0,0 l/m 16,2 km/h (3 Bft) O 82 0 min 0,000 mm 0,0 UV-I 0 W/m 2,8 C -3,5 C 22,5 km/h (4 Bft) 98,31 %
29.12.2015 05:45 3,5 C 96 % 1028,0 hPa 0,0 l/m 18,3 km/h (3 Bft) NO 43 0 min 0,000 mm 0,0 UV-I 0 W/m 2,9 C -4,4 C 27,4 km/h (4 Bft) 95,50 %
29.12.2015 05:50 3,6 C 96 % 1028,0 hPa 0,0 l/m 16,9 km/h (3 Bft) O-NO 78 0 min 0,000 mm 0,0 UV-I 0 W/m 3,0 C -3,6 C 25,7 km/h (4 Bft) 97,32 %
29.12.2015 05:55 3,7 C 96 % 1027,9 hPa 0,0 l/m 18,6 km/h (3 Bft) NO 56 0 min 0,000 mm 0,0 UV-I 0 W/m 3,1 C -4,3 C 27,4 km/h (4 Bft) 97,62 %
29.12.2015 06:00 3,8 C 96 % 1027,9 hPa 0,0 l/m 18,2 km/h (3 Bft) O-NO 62 0 min 0,000 mm 0,0 UV-I 0 W/m 3,2 C -3,9 C 27,4 km/h (4 Bft) 98,21 %
29.12.2015 06:05 3,9 C 95 % 1027,9 hPa 0,0 l/m 18,5 km/h (3 Bft) O-NO 60 0 min 0,000 mm 0,0 UV-I 0 W/m 3,2 C -4,0 C 29,0 km/h (5 Bft) 97,58 %
29.12.2015 06:10 3,9 C 95 % 1027,9 hPa 0,0 l/m 20,3 km/h (4 Bft) O-NO 67 0 min 0,000 mm 0,0 UV-I 0 W/m 3,2 C -4,7 C 30,6 km/h (5 Bft) 97,44 %
29.12.2015 06:15 4,1 C 95 % 1028,0 hPa 0,0 l/m 22,1 km/h (4 Bft) O-NO 74 0 min 0,000 mm 0,0 UV-I 0 W/m 3,4 C -5,2 C 33,8 km/h (5 Bft) 98,11 %
29.12.2015 06:20 4,1 C 94 % 1027,9 hPa 0,0 l/m 21,2 km/h (4 Bft) O-NO 71 0 min 0,000 mm 0,0 UV-I 0 W/m 3,2 C -4,8 C 35,4 km/h (5 Bft) 96,85 %
29.12.2015 06:25 4,1 C 95 % 1027,9 hPa 0,0 l/m 24,0 km/h (4 Bft) NO 49 0 min 0,000 mm 0,0 UV-I 0 W/m 3,4 C -5,8 C 37,0 km/h (5 Bft) 100,00 %
29.12.2015 06:30 4,2 C 94 % 1027,8 hPa 0,0 l/m 25,6 km/h (4 Bft) NO 44 0 min 0,000 mm 0,0 UV-I 0 W/m 3,3 C -6,2 C 37,0 km/h (5 Bft) 98,39 %
29.12.2015 06:35 4,1 C 94 % 1028,0 hPa 0,0 l/m 22,4 km/h (4 Bft) O-NO 68 0 min 0,000 mm 0,0 UV-I 0 W/m 3,2 C -5,3 C 32,2 km/h (5 Bft) 100,00 %
29.12.2015 06:40 4,2 C 94 % 1028,1 hPa 0,0 l/m 24,6 km/h (4 Bft) NO 50 0 min 0,000 mm 0,0 UV-I 0 W/m 3,3 C -5,9 C 35,4 km/h (5 Bft) 98,29 %
29.12.2015 06:45 4,1 C 94 % 1028,0 hPa 0,0 l/m 22,2 km/h (4 Bft) NO 55 0 min 0,000 mm 0,0 UV-I 0 W/m 3,2 C -5,2 C 30,6 km/h (5 Bft) 100,00 %
29.12.2015 06:50 4,1 C 94 % 1027,9 hPa 0,0 l/m 21,5 km/h (4 Bft) O-NO 67 0 min 0,000 mm 0,0 UV-I 0 W/m 3,2 C -4,9 C 32,2 km/h (5 Bft) 100,00 %
29.12.2015 06:55 4,1 C 94 % 1027,8 hPa 0,0 l/m 26,5 km/h (4 Bft) O-NO 76 0 min 0,000 mm 0,0 UV-I 0 W/m 3,2 C -6,6 C 40,2 km/h (6 Bft) 100,00 %
29.12.2015 07:00 4,1 C 94 % 1027,8 hPa 0,0 l/m 25,3 km/h (4 Bft) O-NO 69 0 min 0,000 mm 0,0 UV-I 0 W/m 3,2 C -6,3 C 40,2 km/h (6 Bft) 99,15 %
29.12.2015 07:05 4,1 C 94 % 1027,8 hPa 0,0 l/m 24,0 km/h (4 Bft) O 82 0 min 0,000 mm 0,0 UV-I 0 W/m 3,2 C -5,8 C 37,0 km/h (5 Bft) 99,12 %
29.12.2015 07:10 4,1 C 94 % 1027,8 hPa 0,0 l/m 31,6 km/h (5 Bft) O-NO 77 0 min 0,000 mm 0,0 UV-I 0 W/m 3,2 C -8,1 C 43,5 km/h (6 Bft) 100,00 %
29.12.2015 07:20 4,0 C 94 % 1027,8 hPa 0,0 l/m 24,8 km/h (4 Bft) O-NO 69 0 min 0,000 mm 0,0 UV-I 0 W/m 3,1 C -6,2 C 35,4 km/h (5 Bft) 98,76 %
29.12.2015 07:25 4,0 C 93 % 1027,8 hPa 0,0 l/m 22,2 km/h (4 Bft) SO 132 0 min 0,000 mm 0,0 UV-I 0 W/m 3,0 C -5,3 C 33,8 km/h (5 Bft) 100,00 %
29.12.2015 07:30 4,0 C 93 % 1027,9 hPa 0,0 l/m 21,0 km/h (4 Bft) O-NO 67 0 min 0,000 mm 0,0 UV-I 0 W/m 3,0 C -4,9 C 33,8 km/h (5 Bft) 100,00 %
29.12.2015 07:35 4,0 C 93 % 1027,9 hPa 0,0 l/m 22,8 km/h (4 Bft) O 83 0 min 0,000 mm 0,0 UV-I 0 W/m 3,0 C -5,5 C 35,4 km/h (5 Bft) 99,17 %
29.12.2015 07:40 4,0 C 93 % 1028,0 hPa 0,0 l/m 19,7 km/h (3 Bft) O 80 0 min 0,000 mm 0,0 UV-I 0 W/m 3,0 C -4,3 C 27,4 km/h (4 Bft) 100,00 %
29.12.2015 07:45 3,9 C 93 % 1028,1 hPa 0,0 l/m 21,3 km/h (4 Bft) O-NO 66 0 min 0,000 mm 0,0 UV-I 0 W/m 2,9 C -5,1 C 32,2 km/h (5 Bft) 95,61 %
29.12.2015 07:50 4,0 C 93 % 1028,1 hPa 0,0 l/m 23,3 km/h (4 Bft) O-NO 74 0 min 0,000 mm 0,0 UV-I 0 W/m 3,0 C -5,7 C 35,4 km/h (5 Bft) 97,32 %
29.12.2015 08:05 3,9 C 93 % 1028,1 hPa 0,0 l/m 20,7 km/h (4 Bft) O-SO 110 0 min 0,025 mm 0,0 UV-I 1 W/m 2,9 C -4,9 C 32,2 km/h (5 Bft) 97,19 %
29.12.2015 08:10 3,9 C 93 % 1028,1 hPa 0,0 l/m 20,6 km/h (4 Bft) NO 53 0 min 0,000 mm 0,0 UV-I 5 W/m 2,9 C -4,8 C 29,0 km/h (5 Bft) 97,30 %
29.12.2015 08:15 3,9 C 93 % 1028,2 hPa 0,0 l/m 21,6 km/h (4 Bft) O-NO 78 0 min 0,000 mm 0,0 UV-I 6 W/m 2,9 C -5,2 C 37,0 km/h (5 Bft) 96,55 %
29.12.2015 08:20 3,9 C 93 % 1028,3 hPa 0,0 l/m 21,7 km/h (4 Bft) O-NO 67 0 min 0,000 mm 0,0 UV-I 8 W/m 2,9 C -5,3 C 32,2 km/h (5 Bft) 99,13 %
29.12.2015 08:25 3,9 C 93 % 1028,3 hPa 0,0 l/m 19,2 km/h (3 Bft) O 82 0 min 0,000 mm 0,0 UV-I 11 W/m 2,9 C -4,3 C 29,0 km/h (5 Bft) 99,21 %
29.12.2015 08:30 3,9 C 93 % 1028,2 hPa 0,0 l/m 19,4 km/h (3 Bft) O-NO 70 0 min 0,000 mm 0,0 UV-I 13 W/m 2,9 C -4,3 C 29,0 km/h (5 Bft) 99,17 %
29.12.2015 08:35 3,9 C 93 % 1028,1 hPa 0,0 l/m 20,9 km/h (4 Bft) O 86 0 min 0,000 mm 0,0 UV-I 14 W/m 2,9 C -5,0 C 37,0 km/h (5 Bft) 99,13 %
29.12.2015 08:40 3,9 C 93 % 1028,1 hPa 0,0 l/m 15,6 km/h (3 Bft) O-NO 60 0 min 0,000 mm 0,0 UV-I 18 W/m 2,9 C -2,6 C 25,7 km/h (4 Bft) 98,26 %
29.12.2015 08:45 3,8 C 93 % 1028,1 hPa 0,0 l/m 17,1 km/h (3 Bft) O-NO 71 0 min 0,000 mm 0,0 UV-I 19 W/m 2,8 C -3,4 C 29,0 km/h (5 Bft) 100,00 %
29.12.2015 08:50 3,8 C 93 % 1028,1 hPa 0,0 l/m 19,0 km/h (3 Bft) O-NO 74 0 min 0,000 mm 0,0 UV-I 21 W/m 2,8 C -4,3 C 32,2 km/h (5 Bft) 100,00 %
29.12.2015 08:55 3,8 C 93 % 1028,2 hPa 0,0 l/m 18,4 km/h (3 Bft) O 95 0 min 0,000 mm 0,0 UV-I 22 W/m 2,8 C -4,0 C 27,4 km/h (4 Bft) 100,00 %
29.12.2015 09:00 3,8 C 93 % 1028,1 hPa 0,0 l/m 19,6 km/h (3 Bft) NO 53 0 min 0,026 mm 0,0 UV-I 26 W/m 2,8 C -4,6 C 30,6 km/h (5 Bft) 99,15 %
29.12.2015 09:05 3,8 C 93 % 1028,2 hPa 0,0 l/m 19,6 km/h (3 Bft) O-NO 61 0 min 0,000 mm 0,0 UV-I 27 W/m 2,8 C -4,6 C 30,6 km/h (5 Bft) 100,00 %
29.12.2015 09:10 3,9 C 93 % 1028,1 hPa 0,0 l/m 18,4 km/h (3 Bft) NO 54 0 min 0,000 mm 0,0 UV-I 30 W/m 2,9 C -3,9 C 29,0 km/h (5 Bft) 99,19 %
29.12.2015 09:15 3,8 C 93 % 1028,1 hPa 0,0 l/m 21,9 km/h (4 Bft) NO 55 0 min 0,000 mm 0,0 UV-I 33 W/m 2,8 C -5,5 C 30,6 km/h (5 Bft) 100,00 %
29.12.2015 09:20 3,8 C 93 % 1028,0 hPa 0,0 l/m 19,8 km/h (3 Bft) NO 55 0 min 0,000 mm 0,0 UV-I 35 W/m 2,8 C -4,6 C 33,8 km/h (5 Bft) 99,07 %
29.12.2015 09:25 3,8 C 93 % 1028,0 hPa 0,0 l/m 18,9 km/h (3 Bft) NO 51 0 min 0,000 mm 0,0 UV-I 38 W/m 2,8 C -4,3 C 29,0 km/h (5 Bft) 98,46 %
29.12.2015 09:30 3,8 C 93 % 1028,2 hPa 0,0 l/m 19,2 km/h (3 Bft) NO 48 0 min 0,000 mm 0,0 UV-I 39 W/m 2,8 C -4,4 C 30,6 km/h (5 Bft) 99,10 %
29.12.2015 09:35 3,8 C 93 % 1028,2 hPa 0,0 l/m 18,4 km/h (3 Bft) NO 41 0 min 0,000 mm 0,0 UV-I 41 W/m 2,8 C -4,0 C 29,0 km/h (5 Bft) 99,13 %
29.12.2015 09:40 3,9 C 93 % 1028,3 hPa 0,0 l/m 18,8 km/h (3 Bft) O-NO 70 0 min 0,000 mm 0,0 UV-I 42 W/m 2,9 C -4,1 C 29,0 km/h (5 Bft) 100,00 %
29.12.2015 09:45 3,8 C 93 % 1028,4 hPa 0,0 l/m 16,1 km/h (3 Bft) O-NO 62 0 min 0,000 mm 0,0 UV-I 43 W/m 2,8 C -2,9 C 27,4 km/h (4 Bft) 99,19 %
29.12.2015 09:50 3,8 C 93 % 1028,4 hPa 0,0 l/m 16,4 km/h (3 Bft) NO 49 0 min 0,000 mm 0,0 UV-I 43 W/m 2,8 C -3,1 C 24,1 km/h (4 Bft) 97,39 %
29.12.2015 09:55 3,9 C 93 % 1028,4 hPa 0,0 l/m 17,6 km/h (3 Bft) NO 40 0 min 0,000 mm 0,0 UV-I 49 W/m 2,9 C -3,5 C 24,1 km/h (4 Bft) 97,32 %
29.12.2015 10:00 3,9 C 93 % 1028,5 hPa 0,0 l/m 18,5 km/h (3 Bft) O-NO 65 0 min 0,025 mm 0,0 UV-I 48 W/m 2,9 C -4,0 C 25,7 km/h (4 Bft) 97,50 %
29.12.2015 10:05 3,9 C 93 % 1028,5 hPa 0,0 l/m 18,0 km/h (3 Bft) O-NO 57 0 min 0,000 mm 0,0 UV-I 51 W/m 2,9 C -3,7 C 27,4 km/h (4 Bft) 97,52 %
29.12.2015 10:10 3,9 C 93 % 1028,5 hPa 0,0 l/m 17,5 km/h (3 Bft) O-NO 72 0 min 0,000 mm 0,0 UV-I 55 W/m 2,9 C -3,5 C 25,7 km/h (4 Bft) 95,50 %
29.12.2015 10:15 3,9 C 93 % 1028,5 hPa 0,0 l/m 17,0 km/h (3 Bft) O-NO 63 0 min 0,000 mm 0,0 UV-I 59 W/m 2,9 C -3,3 C 24,1 km/h (4 Bft) 96,69 %
29.12.2015 10:20 3,9 C 93 % 1028,5 hPa 0,0 l/m 16,8 km/h (3 Bft) NO 45 0 min 0,000 mm 0,0 UV-I 62 W/m 2,9 C -3,2 C 24,1 km/h (4 Bft) 97,17 %
29.12.2015 10:25 3,9 C 93 % 1028,3 hPa 0,0 l/m 16,3 km/h (3 Bft) NO 53 0 min 0,000 mm 0,0 UV-I 71 W/m 2,9 C -2,9 C 24,1 km/h (4 Bft) 98,39 %
29.12.2015 10:30 4,0 C 93 % 1028,3 hPa 0,0 l/m 15,0 km/h (3 Bft) NO 56 0 min 0,000 mm 0,0 UV-I 72 W/m 3,0 C -2,1 C 24,1 km/h (4 Bft) 99,19 %
29.12.2015 10:35 4,0 C 92 % 1028,3 hPa 0,0 l/m 14,9 km/h (3 Bft) O 87 0 min 0,000 mm 0,0 UV-I 73 W/m 2,8 C -2,1 C 22,5 km/h (4 Bft) 98,25 %
29.12.2015 10:40 4,0 C 92 % 1028,3 hPa 0,0 l/m 17,6 km/h (3 Bft) O 80 0 min 0,000 mm 0,0 UV-I 76 W/m 2,8 C -3,4 C 25,7 km/h (4 Bft) 99,13 %
29.12.2015 10:45 4,0 C 92 % 1028,4 hPa 0,0 l/m 19,4 km/h (3 Bft) O-NO 57 0 min 0,000 mm 0,0 UV-I 76 W/m 2,8 C -4,2 C 25,7 km/h (4 Bft) 99,13 %
29.12.2015 10:50 4,0 C 92 % 1028,3 hPa 0,0 l/m 14,8 km/h (3 Bft) NO 44 0 min 0,000 mm 0,0 UV-I 72 W/m 2,8 C -2,0 C 22,5 km/h (4 Bft) 100,00 %
29.12.2015 10:55 4,0 C 93 % 1028,3 hPa 0,0 l/m 14,3 km/h (3 Bft) O 85 0 min 0,000 mm 0,0 UV-I 73 W/m 3,0 C -1,8 C 24,1 km/h (4 Bft) 99,08 %
29.12.2015 11:00 4,0 C 92 % 1028,2 hPa 0,0 l/m 13,7 km/h (3 Bft) NO 45 0 min 0,026 mm 0,0 UV-I 74 W/m 2,8 C -1,4 C 20,9 km/h (4 Bft) 99,17 %
29.12.2015 11:05 4,1 C 93 % 1028,2 hPa 0,0 l/m 13,3 km/h (3 Bft) O 86 0 min 0,000 mm 0,0 UV-I 80 W/m 3,1 C -1,1 C 24,1 km/h (4 Bft) 99,17 %
29.12.2015 11:10 4,1 C 92 % 1028,1 hPa 0,0 l/m 17,2 km/h (3 Bft) NO 44 0 min 0,000 mm 0,0 UV-I 82 W/m 2,9 C -3,1 C 25,7 km/h (4 Bft) 100,00 %
29.12.2015 11:15 4,1 C 92 % 1028,1 hPa 0,0 l/m 15,4 km/h (3 Bft) O-NO 76 0 min 0,000 mm 0,0 UV-I 90 W/m 2,9 C -2,2 C 29,0 km/h (5 Bft) 100,00 %
29.12.2015 11:20 4,1 C 92 % 1028,1 hPa 0,0 l/m 15,5 km/h (3 Bft) O-NO 76 0 min 0,000 mm 0,0 UV-I 86 W/m 2,9 C -2,3 C 22,5 km/h (4 Bft) 98,31 %
29.12.2015 11:25 4,1 C 92 % 1028,1 hPa 0,0 l/m 14,1 km/h (3 Bft) O-SO 113 0 min 0,000 mm 0,0 UV-I 89 W/m 2,9 C -1,5 C 20,9 km/h (4 Bft) 99,15 %
29.12.2015 11:30 4,2 C 92 % 1028,0 hPa 0,0 l/m 13,9 km/h (3 Bft) O-NO 67 0 min 0,000 mm 0,0 UV-I 96 W/m 3,0 C -1,3 C 24,1 km/h (4 Bft) 100,00 %
29.12.2015 11:35 4,2 C 92 % 1027,9 hPa 0,0 l/m 13,9 km/h (3 Bft) O-NO 57 0 min 0,000 mm 0,0 UV-I 102 W/m 3,0 C -1,3 C 20,9 km/h (4 Bft) 100,00 %
29.12.2015 11:40 4,2 C 92 % 1027,8 hPa 0,0 l/m 13,7 km/h (3 Bft) O-NO 64 0 min 0,000 mm 0,0 UV-I 106 W/m 3,0 C -1,2 C 20,9 km/h (4 Bft) 100,00 %
29.12.2015 11:45 4,3 C 92 % 1027,8 hPa 0,0 l/m 15,0 km/h (3 Bft) O 82 0 min 0,000 mm 0,2 UV-I 121 W/m 3,1 C -1,8 C 22,5 km/h (4 Bft) 99,19 %
29.12.2015 11:50 4,3 C 92 % 1027,7 hPa 0,0 l/m 13,8 km/h (3 Bft) O-NO 64 0 min 0,000 mm 0,5 UV-I 162 W/m 3,1 C -1,1 C 22,5 km/h (4 Bft) 98,26 %
29.12.2015 11:55 4,3 C 92 % 1027,8 hPa 0,0 l/m 16,3 km/h (3 Bft) O-NO 62 0 min 0,000 mm 0,0 UV-I 160 W/m 3,1 C -2,4 C 27,4 km/h (4 Bft) 97,44 %
29.12.2015 12:00 4,4 C 92 % 1027,7 hPa 0,0 l/m 16,2 km/h (3 Bft) O-NO 67 0 min 0,050 mm 0,0 UV-I 123 W/m 3,2 C -2,3 C 25,7 km/h (4 Bft) 98,11 %
29.12.2015 12:05 4,4 C 92 % 1027,7 hPa 0,0 l/m 17,1 km/h (3 Bft) O-NO 78 0 min 0,000 mm 0,0 UV-I 131 W/m 3,2 C -2,7 C 24,1 km/h (4 Bft) 97,69 %
29.12.2015 12:10 4,4 C 92 % 1027,6 hPa 0,0 l/m 14,0 km/h (3 Bft) O 96 0 min 0,000 mm 0,0 UV-I 120 W/m 3,2 C -1,1 C 24,1 km/h (4 Bft) 96,33 %
29.12.2015 12:15 4,4 C 92 % 1027,6 hPa 0,0 l/m 18,5 km/h (3 Bft) NO 55 0 min 0,000 mm 0,0 UV-I 119 W/m 3,2 C -3,3 C 27,4 km/h (4 Bft) 97,56 %
29.12.2015 12:20 4,4 C 92 % 1027,7 hPa 0,0 l/m 16,9 km/h (3 Bft) O 80 0 min 0,000 mm 0,0 UV-I 109 W/m 3,2 C -2,6 C 27,4 km/h (4 Bft) 96,61 %
29.12.2015 12:25 4,4 C 92 % 1027,7 hPa 0,0 l/m 15,5 km/h (3 Bft) O 87 0 min 0,000 mm 0,0 UV-I 99 W/m 3,2 C -1,9 C 24,1 km/h (4 Bft) 99,07 %
29.12.2015 12:30 4,4 C 92 % 1027,6 hPa 0,0 l/m 18,9 km/h (3 Bft) O-NO 70 0 min 0,000 mm 0,0 UV-I 91 W/m 3,2 C -3,5 C 29,0 km/h (5 Bft) 98,43 %
29.12.2015 12:35 4,4 C 92 % 1027,6 hPa 0,0 l/m 16,4 km/h (3 Bft) NO 44 0 min 0,000 mm 0,0 UV-I 93 W/m 3,2 C -2,4 C 22,5 km/h (4 Bft) 99,08 %
29.12.2015 12:40 4,4 C 92 % 1027,6 hPa 0,0 l/m 14,8 km/h (3 Bft) O-NO 71 0 min 0,000 mm 0,0 UV-I 91 W/m 3,2 C -1,5 C 24,1 km/h (4 Bft) 99,21 %
29.12.2015 12:45 4,4 C 92 % 1027,6 hPa 0,0 l/m 18,6 km/h (3 Bft) O-NO 74 0 min 0,000 mm 0,0 UV-I 88 W/m 3,2 C -3,4 C 27,4 km/h (4 Bft) 100,00 %
29.12.2015 12:50 4,4 C 92 % 1027,6 hPa 0,0 l/m 17,8 km/h (3 Bft) O 82 0 min 0,000 mm 0,0 UV-I 82 W/m 3,2 C -3,0 C 27,4 km/h (4 Bft) 100,00 %
29.12.2015 12:55 4,4 C 92 % 1027,6 hPa 0,0 l/m 15,6 km/h (3 Bft) O 84 0 min 0,000 mm 0,0 UV-I 76 W/m 3,2 C -2,0 C 22,5 km/h (4 Bft) 100,00 %
29.12.2015 13:00 4,4 C 92 % 1027,6 hPa 0,0 l/m 16,3 km/h (3 Bft) NO 44 0 min 0,051 mm 0,0 UV-I 71 W/m 3,2 C -2,3 C 24,1 km/h (4 Bft) 100,00 %
29.12.2015 13:05 4,3 C 92 % 1027,6 hPa 0,0 l/m 18,5 km/h (3 Bft) O-NO 71 0 min 0,000 mm 0,0 UV-I 66 W/m 3,1 C -3,4 C 24,1 km/h (4 Bft) 100,00 %
29.12.2015 13:10 4,3 C 92 % 1027,6 hPa 0,0 l/m 17,0 km/h (3 Bft) O-NO 58 0 min 0,000 mm 0,0 UV-I 67 W/m 3,1 C -2,8 C 25,7 km/h (4 Bft) 100,00 %
29.12.2015 13:15 4,3 C 92 % 1027,6 hPa 0,0 l/m 13,1 km/h (3 Bft) NO 55 0 min 0,000 mm 0,0 UV-I 67 W/m 3,1 C -0,7 C 22,5 km/h (4 Bft) 98,11 %
29.12.2015 13:20 4,4 C 92 % 1027,6 hPa 0,0 l/m 15,8 km/h (3 Bft) O-NO 61 0 min 0,000 mm 0,0 UV-I 77 W/m 3,2 C -2,1 C 22,5 km/h (4 Bft) 99,16 %
29.12.2015 13:25 4,4 C 92 % 1027,6 hPa 0,0 l/m 15,6 km/h (3 Bft) O-NO 67 0 min 0,000 mm 0,0 UV-I 76 W/m 3,2 C -2,0 C 24,1 km/h (4 Bft) 100,00 %
29.12.2015 13:35 4,5 C 92 % 1027,7 hPa 0,0 l/m 13,6 km/h (3 Bft) O 92 0 min 0,000 mm 0,0 UV-I 68 W/m 3,3 C -0,8 C 19,3 km/h (3 Bft) 99,34 %
29.12.2015 13:40 4,4 C 92 % 1027,7 hPa 0,0 l/m 12,9 km/h (3 Bft) O-NO 74 0 min 0,000 mm 0,0 UV-I 76 W/m 3,2 C -0,5 C 19,3 km/h (3 Bft) 98,26 %
29.12.2015 13:45 4,5 C 92 % 1027,7 hPa 0,0 l/m 13,2 km/h (3 Bft) O 101 0 min 0,000 mm 0,0 UV-I 85 W/m 3,3 C -0,5 C 19,3 km/h (3 Bft) 100,00 %
29.12.2015 13:50 4,5 C 92 % 1027,7 hPa 0,0 l/m 11,7 km/h (2 Bft) O-NO 71 0 min 0,000 mm 0,0 UV-I 94 W/m 3,3 C 0,4 C 19,3 km/h (3 Bft) 97,58 %
29.12.2015 13:55 4,6 C 92 % 1027,8 hPa 0,0 l/m 12,1 km/h (2 Bft) O-NO 77 0 min 0,000 mm 0,0 UV-I 102 W/m 3,4 C 0,2 C 20,9 km/h (4 Bft) 97,32 %
29.12.2015 14:00 4,6 C 92 % 1027,9 hPa 0,0 l/m 14,3 km/h (3 Bft) O-NO 67 0 min 0,051 mm 0,0 UV-I 114 W/m 3,4 C -1,0 C 22,5 km/h (4 Bft) 97,14 %
29.12.2015 14:05 4,5 C 92 % 1027,9 hPa 0,0 l/m 14,7 km/h (3 Bft) O-NO 67 0 min 0,000 mm 0,0 UV-I 84 W/m 3,3 C -1,4 C 22,5 km/h (4 Bft) 97,69 %
29.12.2015 14:10 4,5 C 92 % 1027,9 hPa 0,0 l/m 10,8 km/h (2 Bft) O-NO 61 0 min 0,000 mm 0,0 UV-I 83 W/m 3,3 C 1,0 C 17,7 km/h (3 Bft) 97,50 %
29.12.2015 14:15 4,5 C 92 % 1028,0 hPa 0,0 l/m 11,5 km/h (2 Bft) O-NO 61 0 min 0,000 mm 0,0 UV-I 76 W/m 3,3 C 0,5 C 17,7 km/h (3 Bft) 96,43 %
29.12.2015 14:20 4,5 C 92 % 1028,0 hPa 0,0 l/m 10,6 km/h (2 Bft) O 93 0 min 0,000 mm 0,0 UV-I 76 W/m 3,3 C 1,1 C 19,3 km/h (3 Bft) 97,39 %
29.12.2015 14:25 4,5 C 92 % 1028,1 hPa 0,0 l/m 13,3 km/h (3 Bft) O-NO 76 0 min 0,000 mm 0,0 UV-I 77 W/m 3,3 C -0,6 C 22,5 km/h (4 Bft) 98,00 %
29.12.2015 14:30 4,4 C 92 % 1028,2 hPa 0,0 l/m 9,9 km/h (2 Bft) O-SO 117 0 min 0,000 mm 0,0 UV-I 60 W/m 3,2 C 1,5 C 17,7 km/h (3 Bft) 99,24 %
29.12.2015 14:35 4,3 C 92 % 1028,3 hPa 0,0 l/m 10,3 km/h (2 Bft) O-NO 64 0 min 0,000 mm 0,0 UV-I 43 W/m 3,1 C 1,1 C 14,5 km/h (3 Bft) 97,64 %
29.12.2015 14:40 4,3 C 92 % 1028,5 hPa 0,0 l/m 7,6 km/h (2 Bft) O-NO 74 0 min 0,000 mm 0,0 UV-I 89 W/m 3,1 C 3,2 C 14,5 km/h (3 Bft) 100,00 %
29.12.2015 14:45 4,3 C 92 % 1028,6 hPa 0,0 l/m 7,4 km/h (2 Bft) O 81 0 min 0,000 mm 0,0 UV-I 70 W/m 3,1 C 3,4 C 14,5 km/h (3 Bft) 100,00 %
29.12.2015 14:50 4,3 C 92 % 1028,8 hPa 0,0 l/m 8,0 km/h (2 Bft) O-NO 70 0 min 0,000 mm 0,0 UV-I 47 W/m 3,1 C 2,9 C 12,9 km/h (3 Bft) 99,12 %
29.12.2015 14:55 4,3 C 92 % 1028,8 hPa 0,0 l/m 9,4 km/h (2 Bft) NO 56 0 min 0,000 mm 0,0 UV-I 42 W/m 3,1 C 1,7 C 17,7 km/h (3 Bft) 100,00 %
29.12.2015 15:00 4,2 C 92 % 1029,0 hPa 0,0 l/m 11,7 km/h (2 Bft) O-NO 73 0 min 0,025 mm 0,0 UV-I 32 W/m 3,0 C 0,0 C 17,7 km/h (3 Bft) 99,08 %
29.12.2015 15:05 4,1 C 92 % 1029,0 hPa 0,0 l/m 7,8 km/h (2 Bft) O-NO 74 0 min 0,000 mm 0,0 UV-I 27 W/m 2,9 C 2,8 C 16,1 km/h (3 Bft) 99,17 %
29.12.2015 15:10 4,1 C 92 % 1029,1 hPa 0,0 l/m 7,6 km/h (2 Bft) O 89 0 min 0,000 mm 0,0 UV-I 25 W/m 2,9 C 3,0 C 14,5 km/h (3 Bft) 100,00 %
29.12.2015 15:15 4,0 C 92 % 1029,2 hPa 0,0 l/m 6,4 km/h (2 Bft) NO 48 0 min 0,000 mm 0,0 UV-I 22 W/m 2,8 C 4,0 C 12,9 km/h (3 Bft) 99,17 %
29.12.2015 15:20 3,9 C 92 % 1029,3 hPa 0,0 l/m 6,0 km/h (2 Bft) O 101 0 min 0,000 mm 0,0 UV-I 15 W/m 2,7 C 3,9 C 12,9 km/h (3 Bft) 99,21 %
29.12.2015 15:25 3,8 C 92 % 1029,4 hPa 0,0 l/m 5,1 km/h (1 Bft) O 97 0 min 0,000 mm 0,0 UV-I 20 W/m 2,6 C 3,8 C 9,7 km/h (2 Bft) 100,00 %
29.12.2015 15:30 3,8 C 92 % 1029,5 hPa 0,0 l/m 3,9 km/h (1 Bft) SO 126 0 min 0,000 mm 0,0 UV-I 17 W/m 2,6 C 3,8 C 11,3 km/h (2 Bft) 99,06 %
29.12.2015 15:35 3,8 C 93 % 1029,6 hPa 0,0 l/m 3,3 km/h (1 Bft) SO 144 0 min 0,000 mm 0,0 UV-I 14 W/m 2,8 C 3,8 C 8,0 km/h (2 Bft) 100,00 %
29.12.2015 15:40 3,7 C 93 % 1029,8 hPa 0,0 l/m 1,9 km/h (1 Bft) O-SO 106 0 min 0,000 mm 0,0 UV-I 11 W/m 2,7 C 3,7 C 4,8 km/h (1 Bft) 98,39 %
29.12.2015 15:45 3,7 C 93 % 1029,8 hPa 0,0 l/m 3,3 km/h (1 Bft) O 100 0 min 0,000 mm 0,0 UV-I 9 W/m 2,7 C 3,7 C 6,4 km/h (2 Bft) 97,30 %
29.12.2015 15:50 3,7 C 93 % 1030,0 hPa 0,0 l/m 3,0 km/h (1 Bft) O-SO 121 0 min 0,000 mm 0,0 UV-I 7 W/m 2,7 C 3,7 C 6,4 km/h (2 Bft) 98,26 %
29.12.2015 15:55 3,7 C 93 % 1029,9 hPa 0,0 l/m 2,9 km/h (1 Bft) O-SO 121 0 min 0,000 mm 0,0 UV-I 7 W/m 2,7 C 3,7 C 4,8 km/h (1 Bft) 97,58 %
29.12.2015 16:00 3,7 C 93 % 1030,0 hPa 0,0 l/m 1,8 km/h (1 Bft) O-SO 121 0 min 0,000 mm 0,0 UV-I 5 W/m 2,7 C 3,7 C 3,2 km/h (1 Bft) 96,40 %
29.12.2015 16:05 3,7 C 93 % 1030,0 hPa 0,0 l/m 1,3 km/h (1 Bft) O-SO 121 0 min 0,000 mm 0,0 UV-I 5 W/m 2,7 C 3,7 C 3,2 km/h (1 Bft) 96,61 %
29.12.2015 16:10 3,7 C 93 % 1030,2 hPa 0,0 l/m 2,2 km/h (1 Bft) O-SO 121 0 min 0,000 mm 0,0 UV-I 1 W/m 2,7 C 3,7 C 3,2 km/h (1 Bft) 96,75 %
29.12.2015 16:15 3,7 C 93 % 1030,3 hPa 0,0 l/m 1,6 km/h (1 Bft) O-SO 120 0 min 0,000 mm 0,0 UV-I 0 W/m 2,7 C 3,7 C 3,2 km/h (1 Bft) 97,17 %
29.12.2015 16:20 3,6 C 94 % 1030,3 hPa 0,0 l/m 3,1 km/h (1 Bft) N-NO 15 0 min 0,000 mm 0,0 UV-I 0 W/m 2,7 C 3,6 C 6,4 km/h (2 Bft) 96,85 %
29.12.2015 16:25 3,5 C 94 % 1030,4 hPa 0,0 l/m 2,6 km/h (1 Bft) N-NO 29 0 min 0,000 mm 0,0 UV-I 0 W/m 2,6 C 3,5 C 4,8 km/h (1 Bft) 99,12 %
29.12.2015 16:30 3,5 C 94 % 1030,5 hPa 0,0 l/m 2,4 km/h (1 Bft) N-NO 29 0 min 0,000 mm 0,0 UV-I 0 W/m 2,6 C 3,5 C 4,8 km/h (1 Bft) 99,19 %
29.12.2015 16:35 3,5 C 94 % 1030,4 hPa 0,0 l/m 2,1 km/h (1 Bft) NO 34 0 min 0,000 mm 0,0 UV-I 0 W/m 2,6 C 3,5 C 3,2 km/h (1 Bft) 99,11 %
29.12.2015 16:40 3,4 C 94 % 1030,4 hPa 0,0 l/m 4,2 km/h (1 Bft) O-NO 78 0 min 0,000 mm 0,0 UV-I 0 W/m 2,5 C 3,4 C 6,4 km/h (2 Bft) 99,07 %
29.12.2015 16:45 3,4 C 94 % 1030,4 hPa 0,0 l/m 4,6 km/h (1 Bft) O 101 0 min 0,000 mm 0,0 UV-I 0 W/m 2,5 C 3,4 C 6,4 km/h (2 Bft) 98,46 %
29.12.2015 16:50 3,4 C 94 % 1030,5 hPa 0,0 l/m 4,1 km/h (1 Bft) O 92 0 min 0,000 mm 0,0 UV-I 0 W/m 2,5 C 3,4 C 6,4 km/h (2 Bft) 100,00 %
29.12.2015 16:55 3,4 C 94 % 1030,5 hPa 0,0 l/m 3,7 km/h (1 Bft) O 86 0 min 0,000 mm 0,0 UV-I 0 W/m 2,5 C 3,4 C 6,4 km/h (2 Bft) 99,19 %
29.12.2015 17:00 3,4 C 94 % 1030,6 hPa 0,0 l/m 3,5 km/h (1 Bft) O 88 0 min 0,000 mm 0,0 UV-I 0 W/m 2,5 C 3,4 C 6,4 km/h (2 Bft) 100,00 %
29.12.2015 17:05 3,4 C 94 % 1030,8 hPa 0,0 l/m 3,0 km/h (1 Bft) O-NO 76 0 min 0,000 mm 0,0 UV-I 0 W/m 2,5 C 3,4 C 6,4 km/h (2 Bft) 98,37 %
29.12.2015 17:10 3,4 C 94 % 1030,9 hPa 0,0 l/m 0,5 km/h (0 Bft) O-NO 76 0 min 0,000 mm 0,0 UV-I 0 W/m 2,5 C 3,4 C 3,2 km/h (1 Bft) 100,00 %
29.12.2015 17:15 3,4 C 94 % 1030,8 hPa 0,0 l/m 0,8 km/h (0 Bft) O 79 0 min 0,000 mm 0,0 UV-I 0 W/m 2,5 C 3,4 C 3,2 km/h (1 Bft) 99,19 %
29.12.2015 17:20 3,4 C 94 % 1030,9 hPa 0,0 l/m 0,7 km/h (0 Bft) O-SO 107 0 min 0,000 mm 0,0 UV-I 0 W/m 2,5 C 3,4 C 3,2 km/h (1 Bft) 100,00 %
29.12.2015 17:25 3,4 C 94 % 1031,0 hPa 0,0 l/m 1,3 km/h (1 Bft) SO 137 0 min 0,000 mm 0,0 UV-I 0 W/m 2,5 C 3,4 C 3,2 km/h (1 Bft) 100,00 %
29.12.2015 17:30 3,4 C 94 % 1031,0 hPa 0,0 l/m 2,3 km/h (1 Bft) S 171 0 min 0,000 mm 0,0 UV-I 0 W/m 2,5 C 3,4 C 6,4 km/h (2 Bft) 99,15 %
29.12.2015 17:35 3,4 C 95 % 1031,0 hPa 0,0 l/m 0,7 km/h (0 Bft) S 171 0 min 0,000 mm 0,0 UV-I 0 W/m 2,7 C 3,4 C 3,2 km/h (1 Bft) 99,08 %
29.12.2015 17:40 3,4 C 94 % 1031,0 hPa 0,0 l/m 2,6 km/h (1 Bft) O-NO 78 0 min 0,000 mm 0,0 UV-I 0 W/m 2,5 C 3,4 C 4,8 km/h (1 Bft) 99,21 %
29.12.2015 17:45 3,4 C 94 % 1031,2 hPa 0,0 l/m 1,9 km/h (1 Bft) O-NO 78 0 min 0,000 mm 0,0 UV-I 0 W/m 2,5 C 3,4 C 4,8 km/h (1 Bft) 100,00 %
29.12.2015 17:50 3,3 C 95 % 1031,1 hPa 0,0 l/m 1,3 km/h (1 Bft) O 81 0 min 0,000 mm 0,0 UV-I 0 W/m 2,6 C 3,3 C 4,8 km/h (1 Bft) 98,21 %
29.12.2015 17:55 3,3 C 95 % 1031,3 hPa 0,0 l/m 1,0 km/h (0 Bft) O 82 0 min 0,000 mm 0,0 UV-I 0 W/m 2,6 C 3,3 C 3,2 km/h (1 Bft) 95,97 %
29.12.2015 18:00 3,3 C 95 % 1031,3 hPa 0,0 l/m 0,4 km/h (0 Bft) O 82 0 min 0,000 mm 0,0 UV-I 0 W/m 2,6 C 3,3 C 1,6 km/h (1 Bft) 97,37 %
29.12.2015 18:05 3,3 C 95 % 1031,4 hPa 0,0 l/m 1,5 km/h (1 Bft) O 82 0 min 0,000 mm 0,0 UV-I 0 W/m 2,6 C 3,3 C 3,2 km/h (1 Bft) 96,69 %
29.12.2015 18:10 3,3 C 95 % 1031,4 hPa 0,0 l/m 1,5 km/h (1 Bft) O 81 0 min 0,000 mm 0,0 UV-I 0 W/m 2,6 C 3,3 C 3,2 km/h (1 Bft) 97,37 %
29.12.2015 18:15 3,3 C 95 % 1031,5 hPa 0,0 l/m 1,9 km/h (1 Bft) O 81 0 min 0,000 mm 0,0 UV-I 0 W/m 2,6 C 3,3 C 3,2 km/h (1 Bft) 98,28 %
29.12.2015 18:20 3,3 C 95 % 1031,5 hPa 0,0 l/m 0,9 km/h (0 Bft) O 81 0 min 0,000 mm 0,0 UV-I 0 W/m 2,6 C 3,3 C 3,2 km/h (1 Bft) 95,97 %
29.12.2015 18:25 3,3 C 95 % 1031,6 hPa 0,0 l/m 0,9 km/h (0 Bft) O 81 0 min 0,000 mm 0,0 UV-I 0 W/m 2,6 C 3,3 C 3,2 km/h (1 Bft) 98,25 %
29.12.2015 18:30 3,3 C 95 % 1031,6 hPa 0,0 l/m 1,6 km/h (1 Bft) O 81 0 min 0,000 mm 0,0 UV-I 0 W/m 2,6 C 3,3 C 3,2 km/h (1 Bft) 100,00 %
29.12.2015 18:35 3,3 C 95 % 1031,7 hPa 0,0 l/m 0,9 km/h (0 Bft) O 81 0 min 0,000 mm 0,0 UV-I 0 W/m 2,6 C 3,3 C 3,2 km/h (1 Bft) 98,35 %
29.12.2015 18:40 3,3 C 95 % 1031,7 hPa 0,0 l/m 0,5 km/h (0 Bft) O 81 0 min 0,000 mm 0,0 UV-I 0 W/m 2,6 C 3,3 C 1,6 km/h (1 Bft) 100,00 %
29.12.2015 18:45 3,3 C 95 % 1031,7 hPa 0,0 l/m 1,8 km/h (1 Bft) O 82 0 min 0,000 mm 0,0 UV-I 0 W/m 2,6 C 3,3 C 3,2 km/h (1 Bft) 99,15 %
29.12.2015 18:50 3,2 C 95 % 1031,7 hPa 0,0 l/m 2,4 km/h (1 Bft) O-NO 61 0 min 0,000 mm 0,0 UV-I 0 W/m 2,5 C 3,2 C 4,8 km/h (1 Bft) 100,00 %
29.12.2015 18:55 3,2 C 95 % 1031,8 hPa 0,0 l/m 4,0 km/h (1 Bft) NO 50 0 min 0,000 mm 0,0 UV-I 0 W/m 2,5 C 3,2 C 6,4 km/h (2 Bft) 99,17 %
29.12.2015 19:00 3,1 C 95 % 1031,8 hPa 0,0 l/m 4,4 km/h (1 Bft) NO 51 0 min 0,000 mm 0,0 UV-I 0 W/m 2,4 C 3,1 C 6,4 km/h (2 Bft) 100,00 %
29.12.2015 19:05 3,1 C 96 % 1031,9 hPa 0,0 l/m 4,1 km/h (1 Bft) NO 54 0 min 0,000 mm 0,0 UV-I 0 W/m 2,5 C 3,1 C 6,4 km/h (2 Bft) 100,00 %
29.12.2015 19:10 3,1 C 95 % 1031,9 hPa 0,0 l/m 3,4 km/h (1 Bft) NO 54 0 min 0,000 mm 0,0 UV-I 0 W/m 2,4 C 3,1 C 4,8 km/h (1 Bft) 100,00 %
29.12.2015 19:15 3,1 C 95 % 1032,0 hPa 0,0 l/m 4,0 km/h (1 Bft) O-NO 71 0 min 0,000 mm 0,0 UV-I 0 W/m 2,4 C 3,1 C 6,4 km/h (2 Bft) 99,19 %
29.12.2015 19:20 3,0 C 96 % 1032,0 hPa 0,0 l/m 3,4 km/h (1 Bft) O-NO 71 0 min 0,000 mm 0,0 UV-I 0 W/m 2,4 C 3,0 C 6,4 km/h (2 Bft) 98,25 %
29.12.2015 19:25 2,9 C 96 % 1032,0 hPa 0,0 l/m 2,3 km/h (1 Bft) O-NO 71 0 min 0,000 mm 0,0 UV-I 0 W/m 2,3 C 2,9 C 4,8 km/h (1 Bft) 99,13 %
29.12.2015 19:30 2,9 C 96 % 1032,0 hPa 0,0 l/m 2,1 km/h (1 Bft) O-NO 71 0 min 0,000 mm 0,0 UV-I 0 W/m 2,3 C 2,9 C 4,8 km/h (1 Bft) 100,00 %
29.12.2015 19:35 2,8 C 96 % 1032,0 hPa 0,0 l/m 2,1 km/h (1 Bft) O-NO 71 0 min 0,000 mm 0,0 UV-I 0 W/m 2,2 C 2,8 C 4,8 km/h (1 Bft) 100,00 %
29.12.2015 19:40 2,7 C 96 % 1032,0 hPa 0,0 l/m 2,4 km/h (1 Bft) O-NO 72 0 min 0,000 mm 0,0 UV-I 0 W/m 2,1 C 2,7 C 4,8 km/h (1 Bft) 98,35 %
29.12.2015 19:45 2,6 C 96 % 1032,0 hPa 0,0 l/m 2,1 km/h (1 Bft) O 85 0 min 0,000 mm 0,0 UV-I 0 W/m 2,0 C 2,6 C 4,8 km/h (1 Bft) 99,15 %
29.12.2015 19:50 2,5 C 96 % 1032,0 hPa 0,0 l/m 2,4 km/h (1 Bft) O 85 0 min 0,000 mm 0,0 UV-I 0 W/m 1,9 C 2,5 C 4,8 km/h (1 Bft) 100,00 %
29.12.2015 19:55 2,6 C 96 % 1031,9 hPa 0,0 l/m 3,0 km/h (1 Bft) O 84 0 min 0,000 mm 0,0 UV-I 0 W/m 2,0 C 2,6 C 4,8 km/h (1 Bft) 97,64 %
29.12.2015 20:00 2,6 C 96 % 1031,9 hPa 0,0 l/m 2,4 km/h (1 Bft) O 84 0 min 0,000 mm 0,0 UV-I 0 W/m 2,0 C 2,6 C 4,8 km/h (1 Bft) 95,61 %
29.12.2015 20:05 2,5 C 96 % 1032,0 hPa 0,0 l/m 1,3 km/h (1 Bft) O 84 0 min 0,000 mm 0,0 UV-I 0 W/m 1,9 C 2,5 C 3,2 km/h (1 Bft) 97,32 %
29.12.2015 20:10 2,6 C 97 % 1032,0 hPa 0,0 l/m 2,8 km/h (1 Bft) O-NO 60 0 min 0,000 mm 0,0 UV-I 0 W/m 2,2 C 2,6 C 4,8 km/h (1 Bft) 97,39 %
29.12.2015 20:15 2,6 C 96 % 1032,0 hPa 0,0 l/m 3,4 km/h (1 Bft) O-NO 61 0 min 0,000 mm 0,0 UV-I 0 W/m 2,0 C 2,6 C 6,4 km/h (2 Bft) 97,50 %
29.12.2015 20:20 2,6 C 96 % 1032,0 hPa 0,0 l/m 3,6 km/h (1 Bft) O-NO 61 0 min 0,000 mm 0,0 UV-I 0 W/m 2,0 C 2,6 C 4,8 km/h (1 Bft) 96,00 %
29.12.2015 20:25 2,6 C 96 % 1032,0 hPa 0,0 l/m 2,4 km/h (1 Bft) O-NO 61 0 min 0,000 mm 0,0 UV-I 0 W/m 2,0 C 2,6 C 3,2 km/h (1 Bft) 97,16 %
29.12.2015 20:30 2,6 C 96 % 1032,0 hPa 0,0 l/m 1,6 km/h (1 Bft) O-NO 61 0 min 0,000 mm 0,0 UV-I 0 W/m 2,0 C 2,6 C 3,2 km/h (1 Bft) 98,26 %
29.12.2015 20:35 2,4 C 96 % 1032,1 hPa 0,0 l/m 0,9 km/h (0 Bft) O-NO 61 0 min 0,000 mm 0,0 UV-I 0 W/m 1,8 C 2,4 C 3,2 km/h (1 Bft) 99,13 %
29.12.2015 20:40 2,3 C 96 % 1032,2 hPa 0,0 l/m 0,4 km/h (0 Bft) O-NO 61 0 min 0,000 mm 0,0 UV-I 0 W/m 1,7 C 2,3 C 1,6 km/h (1 Bft) 98,29 %
29.12.2015 20:45 2,2 C 96 % 1032,1 hPa 0,0 l/m 0,5 km/h (0 Bft) O-NO 61 0 min 0,000 mm 0,0 UV-I 0 W/m 1,6 C 2,2 C 1,6 km/h (1 Bft) 100,00 %
29.12.2015 20:50 2,2 C 96 % 1032,2 hPa 0,0 l/m 0,7 km/h (0 Bft) O-NO 61 0 min 0,000 mm 0,0 UV-I 0 W/m 1,6 C 2,2 C 1,6 km/h (1 Bft) 100,00 %
29.12.2015 20:55 2,2 C 97 % 1032,2 hPa 0,0 l/m 0,3 km/h (0 Bft) O-NO 61 0 min 0,000 mm 0,0 UV-I 0 W/m 1,8 C 2,2 C 1,6 km/h (1 Bft) 100,00 %
29.12.2015 21:00 2,2 C 97 % 1032,2 hPa 0,0 l/m 0,0 km/h (0 Bft) O-NO 61 0 min 0,000 mm 0,0 UV-I 0 W/m 1,8 C 2,2 C 0,0 km/h (0 Bft) 100,00 %
29.12.2015 21:10 2,0 C 97 % 1032,3 hPa 0,0 l/m 1,1 km/h (1 Bft) SO 128 0 min 0,000 mm 0,0 UV-I 0 W/m 1,6 C 2,0 C 3,2 km/h (1 Bft) 99,71 %
29.12.2015 21:15 2,0 C 97 % 1032,3 hPa 0,0 l/m 3,7 km/h (1 Bft) S 184 0 min 0,000 mm 0,0 UV-I 0 W/m 1,6 C 2,0 C 6,4 km/h (2 Bft) 100,00 %
29.12.2015 21:20 1,9 C 96 % 1032,3 hPa 0,0 l/m 3,7 km/h (1 Bft) S 180 0 min 0,000 mm 0,0 UV-I 0 W/m 1,3 C 1,9 C 8,0 km/h (2 Bft) 98,15 %
29.12.2015 21:25 1,9 C 96 % 1032,3 hPa 0,0 l/m 2,8 km/h (1 Bft) S 180 0 min 0,000 mm 0,0 UV-I 0 W/m 1,3 C 1,9 C 4,8 km/h (1 Bft) 99,17 %
29.12.2015 21:30 1,8 C 96 % 1032,3 hPa 0,0 l/m 3,5 km/h (1 Bft) S 178 0 min 0,000 mm 0,0 UV-I 0 W/m 1,2 C 1,8 C 4,8 km/h (1 Bft) 99,11 %
29.12.2015 21:35 1,8 C 96 % 1032,4 hPa 0,0 l/m 2,3 km/h (1 Bft) S 178 0 min 0,000 mm 0,0 UV-I 0 W/m 1,2 C 1,8 C 4,8 km/h (1 Bft) 97,56 %
29.12.2015 21:40 1,7 C 96 % 1032,5 hPa 0,0 l/m 1,7 km/h (1 Bft) S 186 0 min 0,000 mm 0,0 UV-I 0 W/m 1,1 C 1,7 C 4,8 km/h (1 Bft) 100,00 %
29.12.2015 21:45 1,6 C 96 % 1032,5 hPa 0,0 l/m 0,8 km/h (0 Bft) S 186 0 min 0,000 mm 0,0 UV-I 0 W/m 1,0 C 1,6 C 3,2 km/h (1 Bft) 100,00 %
29.12.2015 21:50 1,4 C 96 % 1032,5 hPa 0,0 l/m 0,9 km/h (0 Bft) S 186 0 min 0,000 mm 0,0 UV-I 0 W/m 0,8 C 1,4 C 3,2 km/h (1 Bft) 100,00 %
29.12.2015 21:55 1,3 C 96 % 1032,5 hPa 0,0 l/m 0,4 km/h (0 Bft) S 186 0 min 0,000 mm 0,0 UV-I 0 W/m 0,7 C 1,3 C 1,6 km/h (1 Bft) 98,26 %
29.12.2015 22:00 1,3 C 96 % 1032,5 hPa 0,0 l/m 0,6 km/h (0 Bft) S 186 0 min 0,000 mm 0,0 UV-I 0 W/m 0,7 C 1,3 C 3,2 km/h (1 Bft) 97,30 %
29.12.2015 22:05 1,4 C 96 % 1032,5 hPa 0,0 l/m 0,0 km/h (0 Bft) S 186 0 min 0,000 mm 0,0 UV-I 0 W/m 0,8 C 1,4 C 1,6 km/h (1 Bft) 95,87 %
29.12.2015 22:10 1,3 C 96 % 1032,5 hPa 0,0 l/m 0,3 km/h (0 Bft) S 186 0 min 0,000 mm 0,0 UV-I 0 W/m 0,7 C 1,3 C 1,6 km/h (1 Bft) 97,50 %
29.12.2015 22:15 1,3 C 96 % 1032,6 hPa 0,0 l/m 3,1 km/h (1 Bft) S 186 0 min 0,000 mm 0,0 UV-I 0 W/m 0,7 C 1,3 C 4,8 km/h (1 Bft) 95,54 %
29.12.2015 22:20 1,2 C 96 % 1032,7 hPa 0,0 l/m 2,9 km/h (1 Bft) S-SW 194 0 min 0,000 mm 0,0 UV-I 0 W/m 0,6 C 1,2 C 6,4 km/h (2 Bft) 97,32 %
29.12.2015 22:25 1,1 C 96 % 1032,8 hPa 0,0 l/m 3,6 km/h (1 Bft) S 184 0 min 0,000 mm 0,0 UV-I 0 W/m 0,5 C 1,1 C 6,4 km/h (2 Bft) 95,83 %
29.12.2015 22:30 0,9 C 96 % 1032,6 hPa 0,0 l/m 3,8 km/h (1 Bft) S 182 0 min 0,000 mm 0,0 UV-I 0 W/m 0,3 C 0,9 C 6,4 km/h (2 Bft) 95,16 %
29.12.2015 22:35 0,8 C 97 % 1032,8 hPa 0,0 l/m 1,8 km/h (1 Bft) S 182 0 min 0,000 mm 0,0 UV-I 0 W/m 0,4 C 0,8 C 4,8 km/h (1 Bft) 100,00 %
29.12.2015 22:40 0,8 C 97 % 1032,8 hPa 0,0 l/m 2,8 km/h (1 Bft) S 182 0 min 0,000 mm 0,0 UV-I 0 W/m 0,4 C 0,8 C 4,8 km/h (1 Bft) 98,37 %
29.12.2015 22:45 0,8 C 97 % 1032,8 hPa 0,0 l/m 3,0 km/h (1 Bft) S 180 0 min 0,000 mm 0,0 UV-I 0 W/m 0,4 C 0,8 C 4,8 km/h (1 Bft) 99,15 %
29.12.2015 22:50 0,8 C 97 % 1032,9 hPa 0,0 l/m 0,9 km/h (0 Bft) S 180 0 min 0,000 mm 0,0 UV-I 0 W/m 0,4 C 0,8 C 3,2 km/h (1 Bft) 100,00 %
29.12.2015 22:55 0,8 C 97 % 1032,9 hPa 0,0 l/m 0,1 km/h (0 Bft) S 180 0 min 0,000 mm 0,0 UV-I 0 W/m 0,4 C 0,8 C 1,6 km/h (1 Bft) 100,00 %
29.12.2015 23:00 0,9 C 98 % 1032,9 hPa 0,0 l/m 0,0 km/h (0 Bft) S 180 0 min 0,000 mm 0,0 UV-I 0 W/m 0,6 C 0,9 C 1,6 km/h (1 Bft) 100,00 %
29.12.2015 23:05 0,9 C 98 % 1033,0 hPa 0,0 l/m 0,0 km/h (0 Bft) S 180 0 min 0,000 mm 0,0 UV-I 0 W/m 0,6 C 0,9 C 0,0 km/h (0 Bft) 99,17 %
29.12.2015 23:10 0,9 C 98 % 1033,1 hPa 0,0 l/m 0,1 km/h (0 Bft) S 180 0 min 0,000 mm 0,0 UV-I 0 W/m 0,6 C 0,9 C 1,6 km/h (1 Bft) 100,00 %
29.12.2015 23:15 0,9 C 97 % 1032,9 hPa 0,0 l/m 0,3 km/h (0 Bft) S 180 0 min 0,000 mm 0,0 UV-I 0 W/m 0,5 C 0,9 C 3,2 km/h (1 Bft) 98,21 %
29.12.2015 23:20 0,9 C 97 % 1032,9 hPa 0,0 l/m 1,0 km/h (0 Bft) S 180 0 min 0,000 mm 0,0 UV-I 0 W/m 0,5 C 0,9 C 3,2 km/h (1 Bft) 97,56 %
29.12.2015 23:25 0,9 C 97 % 1032,9 hPa 0,0 l/m 0,0 km/h (0 Bft) S 180 0 min 0,000 mm 0,0 UV-I 0 W/m 0,5 C 0,9 C 1,6 km/h (1 Bft) 99,11 %
29.12.2015 23:30 1,1 C 98 % 1033,0 hPa 0,0 l/m 0,2 km/h (0 Bft) S 180 0 min 0,000 mm 0,0 UV-I 0 W/m 0,8 C 1,1 C 1,6 km/h (1 Bft) 100,00 %
29.12.2015 23:35 1,2 C 98 % 1033,0 hPa 0,0 l/m 0,0 km/h (0 Bft) S 180 0 min 0,000 mm 0,0 UV-I 0 W/m 0,9 C 1,2 C 1,6 km/h (1 Bft) 100,00 %
29.12.2015 23:40 1,3 C 98 % 1033,0 hPa 0,0 l/m 0,2 km/h (0 Bft) S 180 0 min 0,000 mm 0,0 UV-I 0 W/m 1,0 C 1,3 C 1,6 km/h (1 Bft) 100,00 %
29.12.2015 23:45 1,3 C 98 % 1033,0 hPa 0,0 l/m 0,5 km/h (0 Bft) S 180 0 min 0,000 mm 0,0 UV-I 0 W/m 1,0 C 1,3 C 3,2 km/h (1 Bft) 100,00 %
29.12.2015 23:50 1,5 C 98 % 1033,0 hPa 0,0 l/m 2,4 km/h (1 Bft) O 86 0 min 0,000 mm 0,0 UV-I 0 W/m 1,2 C 1,5 C 6,4 km/h (2 Bft) 100,00 %
29.12.2015 23:55 1,7 C 98 % 1033,0 hPa 0,0 l/m 3,4 km/h (1 Bft) O-NO 71 0 min 0,000 mm 0,0 UV-I 0 W/m 1,4 C 1,7 C 4,8 km/h (1 Bft) 99,19 %
_ Min-Zeit 01:40 10:35 12:10 - 00:00 - - - - - - 01:40 07:10 00:00 22:30
Minimum _ -1,7 C 92 % 1027,6 hPa - 0,0 km/h (0 Bft) - - - - - - -2,1 C -8,1 C 0,0 km/h (0 Bft) 95,16 %
_ Max-Zeit 13:55 00:00 23:10 04:20 07:10 - - 00:00 13:00 11:50 11:50 13:55 15:15 07:10 00:10
Maximum _ 4,6 C 98 % 1033,1 hPa 0,2 l/m 31,6 km/h
O-NO (5 Bft)
- - 0 min 0,051 mm 0,5 UV-I 162 W/m 3,4 C 4,0 C 43,5 km/h
O-NO (6 Bft)
100,00 %
Durchschnitt _ 2,7 C 95 % 1029,5 hPa #0,2 l/m 9,1 km/h (2 Bft) O-NO - #0 min. #0,279 mm 0,3 UV-I 58 W/m 1,9 C -0,6 C 14,7 km/h (3 Bft) 98,68 %